Location: Newark
(35.2672°N, 80.7344°W)
Time: 01:10:58
(UTC+00:00)

Vanguard 1 - Pass Details

Date: 24 January 2020
Orbit: 649 x 3834 km, 34.3° (Epoch: 27 February)

Event Time Altitude Azimuth Distance (km) Brightness Sun altitude
Rises 01:49:42 0° 277° (W) 3,184 13.6 -38.3°
Reaches altitude 10° 01:51:43 10° 274° (W) 2,411 12.8 -38.7°
Enters shadow 01:54:26 34° 265° (W) 1,515 11.3 -39.2°
